Location: Dittelbrunn
(50.0738°N, 10.2196°E)
Time: 22:24:50
(UTC+00:00)

USA 186 - Pass Details

Date: 18 September 2020
Orbit: 261 x 425 km, 96.9° (Epoch: 12 October)

Event Time Altitude Azimuth Distance (km) Brightness Sun altitude
Exits shadow 18:49:23 12° 169° (S) 1,346 4.0 -14.0°
Maximum altitude 18:52:15 84° 256° (WSW) 419 1.7 -14.5°
Drops below altitude 10° 18:55:31 10° 346° (NNW) 1,516 5.0 -14.9°
Sets 18:57:34 0° 348° (NNW) 2,400 6.1 -15.3°
